Location: Cornospital
(48.0620°N, 3.3837°W)
Time: 21:12:15
(UTC+00:00)

GENESIS II - Pass Details

Date: 29 October 2021
Orbit: 494 x 529 km, 64.5° (Epoch: 28 November)

Event Time Altitude Azimuth Distance (km) Brightness Sun altitude
Rises 17:54:54 0° 317° (NW) 2,639 8.3 -9.8°
Reaches altitude 10° 17:57:06 10° 312° (NW) 1,754 7.5 -10.1°
Maximum altitude 18:00:54 49° 237° (WSW) 675 5.2 -10.8°
Drops below altitude 10° 18:04:43 10° 162° (SSE) 1,759 6.8 -11.4°
Sets 18:06:57 0° 157° (SSE) 2,647 7.6 -11.8°
